Location: Newark
(45.5000°N, 11.4167°E)
Time: 15:10:26
(UTC+00:00)

Transit 2A Rocket - Pass Details

Date: 03 September 2019
Orbit: 592 x 911 km, 66.7° (Epoch: 22 September)

Event Time Altitude Azimuth Distance (km) Brightness Sun altitude
Enters shadow 01:39:29 - 313° (NW) 2,960 8.1 -27.6°
Rises 01:39:33 0° 313° (NW) 2,935 - -27.6°
Reaches altitude 10° 01:42:32 10° 293° (WNW) 1,981 - -27.3°
Maximum altitude 01:45:23 17° 253° (WSW) 1,538 - -26.9°
Drops below altitude 10° 01:48:10 10° 212° (SSW) 1,924 - -26.6°
Sets 01:51:01 0° 192° (SSW) 2,813 - -26.2°
